timestamp,wind_dir_avg,wind_spd_avg,wind_spd_max_dir,wind_spd_gust,battery_voltage,lat,long
2021-11-07 00:04:00+00:00,246.0,8.16,243.0,8.99,12.57,47.59359,-54.27349
2021-11-07 00:14:00+00:00,249.0,7.92,254.0,9.48,12.57,47.59359,-54.27349
2021-11-07 00:24:00+00:00,252.0,9.18,256.0,13.28,12.57,47.59359,-54.27349
2021-11-07 00:34:00+00:00,246.0,9.37,254.0,13.27,12.57,47.59359,-54.27349
2021-11-07 00:44:00+00:00,247.0,7.79,246.0,8.95,12.57,47.59359,-54.27349
2021-11-07 00:54:00+00:00,250.0,9.34,253.0,13.11,12.57,47.59359,-54.27349
2021-11-07 01:04:00+00:00,252.0,8.3,256.0,12.39,12.57,47.59359,-54.27349
2021-11-07 01:14:00+00:00,251.0,8.14,254.0,11.0,12.57,47.59359,-54.27349
2021-11-07 01:24:00+00:00,250.0,7.06,249.0,8.57,12.57,47.59359,-54.27349
2021-11-07 01:34:00+00:00,241.0,6.85,242.0,8.55,12.57,47.59359,-54.27349
2021-11-07 01:44:00+00:00,240.0,6.82,243.0,7.97,12.57,47.59359,-54.27349
2021-11-07 01:54:00+00:00,238.0,6.55,242.0,8.12,12.57,47.59359,-54.27349
2021-11-07 02:04:00+00:00,243.0,8.32,245.0,8.98,12.57,47.59359,-54.27349
2021-11-07 02:14:01+00:00,245.0,9.48,252.0,14.64,12.49,47.59359,-54.27349
2021-11-07 02:24:01+00:00,256.0,11.93,255.0,14.35,12.49,47.59359,-54.27349
2021-11-07 02:34:01+00:00,245.0,10.35,251.0,13.93,12.49,47.59359,-54.27349
2021-11-07 02:44:01+00:00,242.0,9.56,251.0,13.85,12.49,47.59359,-54.27349
2021-11-07 02:54:01+00:00,226.0,6.28,235.0,8.37,12.49,47.59359,-54.27349
2021-11-07 03:04:01+00:00,239.0,8.34,235.0,9.27,12.49,47.59359,-54.27349
2021-11-07 03:14:01+00:00,241.0,8.16,236.0,9.35,12.49,47.59359,-54.27349
2021-11-07 03:24:01+00:00,247.0,7.19,243.0,8.36,12.49,47.59359,-54.27349
2021-11-07 03:34:01+00:00,235.0,7.25,235.0,8.97,12.49,47.59359,-54.27349
2021-11-07 03:44:01+00:00,224.0,5.74,238.0,8.13,12.49,47.59359,-54.27349
2021-11-07 03:54:01+00:00,234.0,5.7,224.0,6.43,12.49,47.59359,-54.27349
2021-11-07 04:04:01+00:00,219.0,5.78,224.0,7.04,12.49,47.59359,-54.27349
2021-11-07 04:14:00+00:00,224.0,6.27,221.0,7.22,12.49,47.59359,-54.27349
2021-11-07 04:24:00+00:00,227.0,5.98,222.0,7.33,12.49,47.59359,-54.27349
2021-11-07 04:34:00+00:00,225.0,6.24,218.0,7.43,12.49,47.59359,-54.27349
2021-11-07 04:44:00+00:00,236.0,6.14,240.0,6.99,12.49,47.59359,-54.27349
2021-11-07 04:54:00+00:00,243.0,7.32,243.0,8.2,12.49,47.59359,-54.27349
2021-11-07 05:04:00+00:00,242.0,7.29,240.0,8.37,12.49,47.59359,-54.27349
2021-11-07 05:14:00+00:00,239.0,8.05,236.0,9.2,12.49,47.59359,-54.27349
2021-11-07 05:24:00+00:00,245.0,11.8,249.0,14.71,12.49,47.59359,-54.27349
2021-11-07 05:34:00+00:00,242.0,10.12,250.0,14.22,12.49,47.59359,-54.27349
2021-11-07 05:44:00+00:00,245.0,9.21,255.0,13.22,12.49,47.59359,-54.27349
2021-11-07 05:54:00+00:00,243.0,9.02,255.0,13.32,12.49,47.59359,-54.27349
2021-11-07 06:04:00+00:00,254.0,12.37,257.0,14.67,12.49,47.59359,-54.27349
2021-11-07 06:14:01+00:00,251.0,12.43,255.0,14.61,12.49,47.59359,-54.27349
2021-11-07 06:24:01+00:00,250.0,11.34,250.0,13.57,12.49,47.59359,-54.27349
2021-11-07 06:34:01+00:00,241.0,9.02,250.0,13.9,12.49,47.59359,-54.27349
2021-11-07 06:44:01+00:00,235.0,9.26,244.0,11.69,12.49,47.59359,-54.27349
2021-11-07 06:54:01+00:00,236.0,9.67,246.0,13.39,12.49,47.59359,-54.27349
2021-11-07 07:04:01+00:00,240.0,10.15,246.0,13.67,12.49,47.59359,-54.27349
2021-11-07 07:14:00+00:00,237.0,10.31,247.0,12.67,12.41,47.59359,-54.27349
2021-11-07 07:24:00+00:00,240.0,9.73,257.0,12.78,12.41,47.59359,-54.27349
2021-11-07 07:34:00+00:00,240.0,11.23,240.0,13.2,12.41,47.59359,-54.27349
2021-11-07 07:44:00+00:00,245.0,10.93,252.0,13.61,12.41,47.59359,-54.27349
2021-11-07 07:54:00+00:00,242.0,10.48,252.0,12.66,12.41,47.59359,-54.27349
2021-11-07 08:04:00+00:00,239.0,10.23,239.0,12.96,12.41,47.59359,-54.27349
2021-11-07 08:14:01+00:00,243.0,11.28,247.0,14.17,12.41,47.59359,-54.27349
2021-11-07 08:24:01+00:00,247.0,8.51,258.0,10.56,12.41,47.59359,-54.27349
2021-11-07 08:34:01+00:00,240.0,9.63,244.0,12.33,12.41,47.59359,-54.27349
2021-11-07 08:44:01+00:00,246.0,11.82,249.0,14.86,12.41,47.59359,-54.27349
2021-11-07 08:54:01+00:00,245.0,9.51,255.0,13.79,12.41,47.59359,-54.27349
2021-11-07 09:04:01+00:00,241.0,10.36,248.0,14.0,12.41,47.59359,-54.27349
2021-11-07 09:14:01+00:00,242.0,9.51,253.0,13.28,12.41,47.59359,-54.27349
2021-11-07 09:24:01+00:00,242.0,10.9,249.0,14.33,12.41,47.59359,-54.27349
2021-11-07 09:34:01+00:00,236.0,9.32,239.0,10.8,12.41,47.59359,-54.27349
2021-11-07 09:44:01+00:00,236.0,10.03,248.0,13.13,12.41,47.59359,-54.27349
2021-11-07 09:54:01+00:00,235.0,10.03,243.0,12.84,12.41,47.59359,-54.27349
2021-11-07 10:04:01+00:00,233.0,10.94,246.0,13.4,12.41,47.59359,-54.27349
2021-11-07 10:14:01+00:00,235.0,10.17,243.0,11.94,12.41,47.59359,-54.27349
2021-11-07 10:24:01+00:00,239.0,10.93,239.0,13.17,12.41,47.59359,-54.27349
2021-11-07 10:34:01+00:00,238.0,11.46,235.0,13.8,12.41,47.59359,-54.27349
2021-11-07 10:44:01+00:00,236.0,11.55,236.0,13.79,12.41,47.59359,-54.27349
2021-11-07 10:54:01+00:00,238.0,9.68,233.0,11.08,12.41,47.59359,-54.27349
2021-11-07 11:04:01+00:00,244.0,9.78,247.0,13.12,12.41,47.59359,-54.27349
2021-11-07 11:14:01+00:00,243.0,10.53,252.0,13.57,13.37,47.59359,-54.27349
2021-11-07 11:24:01+00:00,240.0,10.64,244.0,13.87,13.37,47.59359,-54.27349
2021-11-07 11:34:01+00:00,244.0,11.52,246.0,13.88,13.37,47.59359,-54.27349
2021-11-07 11:44:01+00:00,245.0,11.54,251.0,13.82,13.37,47.59359,-54.27349
2021-11-07 11:54:01+00:00,247.0,9.9,254.0,11.84,13.37,47.59359,-54.27349
2021-11-07 12:04:01+00:00,248.0,12.34,254.0,14.24,13.37,47.59359,-54.27349
2021-11-07 12:14:01+00:00,248.0,12.24,249.0,14.05,14.0,47.59359,-54.27349
2021-11-07 12:24:01+00:00,246.0,11.32,245.0,12.84,14.0,47.59359,-54.27349
2021-11-07 12:34:01+00:00,246.0,11.76,240.0,13.05,14.0,47.59359,-54.27349
2021-11-07 12:44:01+00:00,245.0,9.86,241.0,11.74,14.0,47.59359,-54.27349
2021-11-07 12:54:01+00:00,245.0,10.23,248.0,11.57,14.0,47.59359,-54.27349
2021-11-07 13:04:01+00:00,249.0,10.77,247.0,12.1,14.0,47.59359,-54.27349
2021-11-07 13:14:01+00:00,249.0,8.62,249.0,10.93,13.6,47.59359,-54.27349
2021-11-07 13:24:01+00:00,252.0,10.47,252.0,12.0,13.6,47.59359,-54.27349
2021-11-07 13:34:01+00:00,248.0,9.64,252.0,10.98,13.6,47.59359,-54.27349
2021-11-07 13:44:01+00:00,242.0,10.6,238.0,12.34,13.6,47.59359,-54.27349
2021-11-07 13:54:01+00:00,248.0,9.39,241.0,11.64,13.6,47.59359,-54.27349
2021-11-07 14:04:01+00:00,255.0,9.09,244.0,11.3,13.6,47.59359,-54.27349
2021-11-07 14:14:01+00:00,259.0,10.77,261.0,12.62,14.24,47.59359,-54.27349
2021-11-07 14:24:01+00:00,254.0,8.38,262.0,9.73,14.24,47.59359,-54.27349
2021-11-07 14:34:01+00:00,249.0,10.18,255.0,13.63,14.24,47.59359,-54.27349
2021-11-07 14:44:01+00:00,256.0,10.18,252.0,12.18,14.24,47.59359,-54.27349
2021-11-07 14:54:01+00:00,263.0,11.19,265.0,12.93,14.24,47.59359,-54.27349
2021-11-07 15:04:01+00:00,262.0,8.86,266.0,11.0,14.24,47.59359,-54.27349
2021-11-07 15:14:00+00:00,255.0,8.97,252.0,9.69,13.68,47.59359,-54.27349
2021-11-07 15:24:00+00:00,253.0,8.5,255.0,9.91,13.68,47.59359,-54.27349
2021-11-07 15:34:00+00:00,268.0,8.85,270.0,10.02,13.68,47.59359,-54.27349
2021-11-07 15:44:00+00:00,264.0,9.1,260.0,10.28,13.68,47.59359,-54.27349
2021-11-07 15:54:00+00:00,259.0,8.57,263.0,10.1,13.68,47.59359,-54.27349
2021-11-07 16:04:00+00:00,257.0,9.55,252.0,10.95,13.68,47.59359,-54.27349
2021-11-07 16:14:01+00:00,256.0,10.37,259.0,11.09,13.84,47.59359,-54.27349
2021-11-07 16:24:01+00:00,265.0,9.08,266.0,11.15,13.84,47.59359,-54.27349
2021-11-07 16:34:01+00:00,252.0,11.93,251.0,12.77,13.84,47.59359,-54.27349
2021-11-07 16:44:01+00:00,258.0,9.76,260.0,10.92,13.84,47.59359,-54.27349
2021-11-07 16:54:01+00:00,261.0,10.21,252.0,11.44,13.84,47.59359,-54.27349
2021-11-07 17:04:01+00:00,264.0,10.49,260.0,11.84,13.84,47.59359,-54.27349
2021-11-07 17:14:00+00:00,263.0,9.96,270.0,11.17,13.84,47.59359,-54.27349
2021-11-07 17:24:00+00:00,269.0,10.46,271.0,12.52,13.84,47.59359,-54.27349
2021-11-07 17:34:00+00:00,255.0,10.24,264.0,11.61,13.84,47.59359,-54.27349
2021-11-07 17:44:00+00:00,265.0,9.03,276.0,10.53,13.84,47.59359,-54.27349
2021-11-07 17:54:00+00:00,258.0,8.36,259.0,9.57,13.84,47.59359,-54.27349
2021-11-07 18:04:00+00:00,259.0,8.81,259.0,9.98,13.84,47.59359,-54.27349
2021-11-07 18:14:00+00:00,256.0,8.01,265.0,9.67,13.6,47.59359,-54.27349
2021-11-07 18:24:00+00:00,255.0,10.4,250.0,11.23,13.6,47.59359,-54.27349
2021-11-07 18:34:00+00:00,250.0,7.5,252.0,9.01,13.6,47.59359,-54.27349
2021-11-07 18:44:00+00:00,252.0,9.52,256.0,11.04,13.6,47.59359,-54.27349
2021-11-07 18:54:00+00:00,245.0,7.05,243.0,8.06,13.6,47.59359,-54.27349
2021-11-07 19:04:00+00:00,246.0,8.41,251.0,9.68,13.6,47.59359,-54.27349
2021-11-07 19:14:01+00:00,252.0,9.83,254.0,10.83,13.37,47.59359,-54.27349
2021-11-07 19:24:01+00:00,259.0,7.29,261.0,8.93,13.37,47.59359,-54.27349
2021-11-07 19:34:01+00:00,249.0,6.45,249.0,7.39,13.37,47.59359,-54.27349
2021-11-07 19:44:01+00:00,252.0,8.33,256.0,9.44,13.37,47.59359,-54.27349
2021-11-07 19:54:01+00:00,251.0,8.24,253.0,9.1,13.37,47.59359,-54.27349
2021-11-07 20:04:01+00:00,253.0,8.67,253.0,9.91,13.37,47.59359,-54.27349
2021-11-07 20:14:01+00:00,252.0,10.36,254.0,10.98,13.05,47.59359,-54.27349
2021-11-07 20:24:01+00:00,251.0,8.08,247.0,9.29,13.05,47.59359,-54.27349
2021-11-07 20:34:01+00:00,252.0,7.54,249.0,8.93,13.05,47.59359,-54.27349
2021-11-07 20:44:01+00:00,251.0,7.28,255.0,8.33,13.05,47.59359,-54.27349
2021-11-07 20:54:01+00:00,243.0,7.97,250.0,9.56,13.05,47.59359,-54.27349
2021-11-07 21:04:01+00:00,244.0,7.55,233.0,9.04,13.05,47.59359,-54.27349
2021-11-07 21:14:01+00:00,235.0,7.26,240.0,8.69,12.65,47.59359,-54.27349
2021-11-07 21:24:01+00:00,232.0,6.86,233.0,7.57,12.65,47.59359,-54.27349
2021-11-07 21:34:01+00:00,234.0,6.32,231.0,7.51,12.65,47.59359,-54.27349
2021-11-07 21:44:01+00:00,236.0,6.4,240.0,7.61,12.65,47.59359,-54.27349
2021-11-07 21:54:01+00:00,229.0,7.75,230.0,8.83,12.65,47.59359,-54.27349
2021-11-07 22:04:01+00:00,232.0,8.04,231.0,8.97,12.65,47.59359,-54.27349
2021-11-07 22:14:01+00:00,236.0,8.46,237.0,9.26,12.65,47.59359,-54.27349
2021-11-07 22:24:01+00:00,238.0,7.42,236.0,8.29,12.65,47.59359,-54.27349
2021-11-07 22:34:01+00:00,232.0,6.47,237.0,7.76,12.65,47.59359,-54.27349
2021-11-07 22:44:01+00:00,229.0,5.82,218.0,6.63,12.65,47.59359,-54.27349
2021-11-07 22:54:01+00:00,237.0,6.85,231.0,7.55,12.65,47.59359,-54.27349
2021-11-07 23:04:01+00:00,235.0,6.2,239.0,6.68,12.65,47.59359,-54.27349
2021-11-07 23:14:00+00:00,234.0,6.27,236.0,6.95,12.57,47.59359,-54.27349
2021-11-07 23:24:00+00:00,243.0,7.21,246.0,8.07,12.57,47.59359,-54.27349
2021-11-07 23:34:00+00:00,240.0,7.21,238.0,8.42,12.57,47.59359,-54.27349
2021-11-07 23:44:00+00:00,235.0,7.56,247.0,10.15,12.57,47.59359,-54.27349
2021-11-07 23:54:00+00:00,238.0,7.61,237.0,8.47,12.57,47.59359,-54.27349
